Theta_e
335 336 336 336 337 338 335 335 329 324 322 326 326 329 330 330 331 328 329 331 331 328 328 328 328 328 329 331 333 333 336 336 335 335 336 336 336 337
334 335 335 335 336 336 334 333 331 327 321 325 321 323 327 328 330 326 328 329 328 327 326 326 327 326 327 328 329 330 331 332 332 332 332 332 332 332
331 332 335 335 334 334 334 333 329 325 319 319 321 320 320 320 321 322 323 322 324 325 324 324 323 323 323 323 324 325 326 327 328 329 329 330 330 331
325 328 330 335 331 330 329 326 323 322 323 317 318 317 317 319 320 319 320 321 320 323 323 322 322 321 320 319 318 318 318 321 322 324 325 325 325 324
322 323 326 329 327 326 325 321 321 324 323 319 315 317 316 317 316 317 315 318 320 322 321 321 321 320 319 317 315 313 312 313 314 315 317 319 320 320
320 322 324 326 325 324 322 319 318 321 320 317 315 315 316 317 317 314 314 314 314 317 318 318 319 320 319 317 316 315 312 310 310 310 311 311 312 315
320 322 324 329 331 327 321 317 316 315 316 316 315 315 315 314 315 316 314 313 310 311 309 310 310 309 311 316 317 315 313 312 310 309 309 308 308 309
320 318 320 323 321 325 326 323 319 315 317 317 315 314 314 316 316 315 313 315 309 313 309 308 312 308 308 307 314 313 312 311 310 310 308 307 307 307
319 315 316 317 316 314 320 323 323 322 320 315 311 311 311 314 314 316 318 312 316 313 313 312 312 309 308 309 315 313 311 310 310 309 308 307 306 305
317 313 311 310 309 308 306 306 310 315 319 321 317 317 317 318 317 316 314 313 313 314 313 308 309 311 310 307 315 312 310 309 309 308 308 306 304 303
314 313 309 309 313 309 301 299 298 300 310 313 314 313 313 314 314 315 310 312 309 310 318 315 313 312 305 304 306 314 311 308 308 308 308 306 304 303
305 307 313 309 311 307 302 303 302 301 301 302 303 307 310 309 312 307 306 305 306 306 308 315 311 311 308 304 303 306 306 308 306 306 306 305 303 298
305 303 303 307 306 307 305 305 305 306 309 305 306 307 307 305 304 303 304 306 304 303 307 309 305 305 303 303 302 302 304 302 302 302 303 302 302 301
306 303 302 303 302 304 308 305 304 306 305 307 308 306 306 307 304 303 303 304 305 304 305 304 303 300 299 298 301 303 302 302 301 301 301 302 303 304
306 304 303 300 300 301 303 304 304 302 302 303 303 303 305 307 304 303 304 304 304 306 308 305 302 300 299 298 298 299 303 304 302 302 301 304 301 299
309 304 304 302 302 304 303 302 302 301 302 300 299 299 299 301 301 300 298 302 303 303 307 307 304 302 299 299 298 297 299 300 303 302 302 303 303 302
300 299 300 302 304 300 299 300 299 300 300 301 300 300 299 301 300 299 297 298 296 300 302 306 306 304 303 302 302 301 300 300 301 303 302 302 304 305
299 298 300 302 302 300 300 301 302 303 302 302 300 299 300 297 296 297 299 296 296 297 299 302 304 304 302 301 310 303 301 299 297 302 302 302 301 301
300 299 300 301 302 302 302 303 302 301 303 302 300 299 300 299 297 297 298 298 298 296 296 297 299 302 298 295 298 310 302 297 296 295 296 297 297 299
301 299 302 302 302 304 305 306 302 300 300 303 301 300 300 299 299 299 299 297 298 296 295 296 297 298 298 297 296 299 305 301 296 295 295 296 299 305
303 300 301 302 304 306 306 307 306 303 301 302 302 300 301 300 299 299 299 299 299 297 296 296 298 305 300 298 296 297 299 303 301 297 297 296 296 294
303 302 302 303 302 304 306 304 304 302 302 302 301 302 302 302 301 302 300 299 298 297 296 297 299 299 299 298 296 295 296 300 303 306 306 304 297 294
306 305 304 302 303 305 307 306 305 305 304 305 303 301 301 301 301 301 303 299 299 298 297 295 295 297 297 297 297 295 294 294 296 296 298 304 306 305
Wind_Speed
4 4 2 1 1 3 3 6 6 4 2 3 3 5 5 6 9 7 7 13 14 14 13 12 13 13 13 14 15 16 14 14 18 17 17 18 19 20
4 5 4 3 3 2 3 3 3 6 4 2 4 3 5 6 9 6 7 12 14 13 13 11 12 13 14 15 17 18 19 18 18 18 17 16 15 15
6 6 7 5 4 3 4 4 5 4 6 3 2 3 4 6 5 6 6 6 6 11 11 12 12 13 14 15 15 16 17 18 18 17 17 17 16 17
6 7 6 5 6 6 4 5 5 3 6 10 2 2 4 4 4 5 4 3 4 9 11 11 12 11 12 12 13 13 13 13 14 15 15 15 15 15
6 6 5 6 6 4 5 5 5 6 6 6 4 2 3 2 3 3 3 3 3 10 10 9 10 10 10 10 11 11 11 11 12 13 13 15 14 15
6 6 6 6 6 5 6 6 5 7 7 6 4 3 2 2 2 2 2 2 2 3 6 6 6 7 7 9 10 10 10 10 10 10 11 11 12 12
6 6 7 10 10 6 4 5 6 6 5 5 4 2 2 2 2 2 2 2 1 2 1 1 1 2 3 5 6 8 8 9 9 9 9 8 9 10
5 5 6 8 11 10 10 9 7 7 7 4 2 3 2 2 3 3 3 2 2 2 2 2 3 1 1 1 3 6 7 7 7 7 7 8 8 8
5 5 5 4 7 6 11 10 9 8 7 6 6 4 4 5 5 3 3 2 1 2 3 1 3 2 2 1 6 7 7 7 6 5 4 5 5 6
5 5 6 4 4 6 7 7 6 5 3 4 6 5 4 6 4 4 4 3 2 1 3 2 2 3 3 3 7 6 6 6 7 5 4 3 3 3
5 5 5 5 6 6 8 7 6 5 7 9 7 6 6 7 6 4 2 3 1 1 1 3 2 2 1 2 3 8 8 8 7 6 5 5 5 5
3 3 5 5 7 8 7 6 6 2 4 5 5 6 6 6 8 4 5 3 3 1 3 3 3 3 1 1 2 4 3 7 6 7 8 8 7 2
4 3 2 4 6 9 8 6 5 5 5 5 3 2 2 3 3 2 2 4 3 2 3 2 2 2 2 2 2 3 4 3 4 4 9 8 8 7
5 4 4 7 7 7 7 7 7 7 4 4 2 1 2 1 1 2 2 1 2 3 3 4 3 3 2 1 2 2 3 4 4 4 3 4 8 10
4 6 8 8 5 4 8 9 6 3 4 3 4 4 4 4 1 1 1 1 0 1 3 3 4 3 3 3 2 2 2 2 5 5 4 6 5 4
6 5 6 7 4 2 1 1 3 3 5 5 3 2 2 2 2 1 1 1 1 3 3 3 5 5 3 2 3 1 2 2 1 4 4 4 4 5
6 3 2 1 2 2 2 1 1 3 4 4 3 3 2 2 2 2 2 1 2 1 2 2 2 3 3 5 2 4 3 3 3 2 3 3 4 5
3 3 4 4 4 4 4 2 2 4 4 3 3 3 4 4 3 2 1 2 2 2 2 3 1 3 4 4 10 3 2 3 2 2 2 2 4 4
4 4 4 5 5 5 5 4 4 5 4 4 4 4 4 3 3 2 2 2 2 2 3 2 2 3 2 4 5 10 4 4 2 2 5 5 4 5
4 5 7 5 5 5 5 5 5 4 4 5 5 5 5 4 3 3 3 4 4 2 2 2 3 5 5 6 4 5 12 4 5 4 4 3 5 6
6 5 5 5 5 5 5 7 8 8 6 5 5 5 5 5 4 4 4 6 5 3 4 4 5 5 3 2 0 4 4 11 7 6 3 3 3 2
5 6 5 6 5 5 5 5 6 7 6 6 5 5 5 5 5 5 5 4 5 5 4 3 2 2 2 4 4 3 4 5 5 15 16 13 6 5
6 6 6 5 5 5 5 6 8 9 7 8 7 6 5 5 6 5 4 5 4 3 4 2 1 1 3 4 5 3 3 3 2 5 6 6 15 9
Wind_Direction
5 359 19 339 204 177 139 159 137 140 118 53 90 26 73 79 85 73 80 93 92 89 85 81 77 72 63 52 46 41 47 71 67 63 59 61 62 61
5 18 20 20 72 118 130 127 91 126 121 80 42 53 69 76 85 66 83 87 86 84 82 81 80 74 67 59 55 55 54 64 68 65 61 59 61 66
17 24 30 32 48 59 97 92 97 95 122 87 81 40 56 73 66 60 58 59 73 85 87 83 80 74 71 67 64 61 59 59 58 64 65 62 57 64
18 28 27 36 42 40 56 69 98 102 131 136 118 96 71 61 74 80 68 73 78 85 86 87 86 86 81 74 66 63 59 61 63 63 64 68 70 68
35 39 30 50 49 45 69 83 83 103 118 131 106 77 85 81 76 66 71 69 79 87 86 95 96 91 89 87 82 75 71 65 62 62 63 63 64 69
46 45 41 56 77 75 72 83 93 105 113 108 84 89 98 95 87 125 102 63 70 44 73 81 86 87 88 92 91 87 80 75 71 69 67 66 65 66
46 48 54 65 71 86 106 101 105 106 109 118 107 103 107 132 167 165 104 121 168 142 94 56 44 52 51 57 88 92 88 86 83 82 77 75 77 76
92 63 50 57 62 70 102 112 126 130 134 135 122 135 145 159 145 156 137 148 189 183 124 215 174 209 185 179 166 133 122 111 103 98 101 100 96 93
111 89 71 43 73 79 77 91 117 135 148 149 146 172 161 185 152 167 173 164 200 160 123 199 159 223 178 223 172 173 152 142 136 134 128 125 128 124
109 112 108 94 104 103 92 76 65 69 119 137 150 162 155 160 167 164 162 140 59 95 130 176 182 220 158 182 196 196 189 180 179 177 173 182 196 202
106 117 124 117 133 116 101 98 79 55 51 70 87 111 129 156 155 113 98 119 126 269 201 145 192 137 169 216 217 209 215 214 210 207 214 218 229 257
107 103 123 136 144 133 121 123 110 121 90 63 37 39 66 49 49 93 148 139 138 89 243 164 156 153 233 217 209 210 208 231 226 230 233 228 227 235
169 168 181 158 126 167 152 149 169 156 131 110 99 77 46 57 66 62 142 140 141 188 262 111 99 76 93 299 290 213 198 212 211 242 242 240 231 205
182 192 183 181 159 140 163 147 149 127 133 133 142 193 231 259 233 187 212 115 118 161 168 124 131 134 133 17 279 330 243 221 206 231 227 240 244 238
172 185 175 165 142 130 166 172 150 156 165 150 174 191 204 213 208 250 167 215 206 168 178 155 131 143 139 169 214 273 328 242 206 218 201 221 216 205
156 163 176 162 148 168 175 176 137 134 146 145 161 179 108 137 189 178 86 46 78 304 281 223 170 145 159 200 168 236 250 276 284 218 215 242 231 213
130 114 141 155 201 189 191 174 141 140 143 158 156 170 146 136 179 179 164 108 115 248 282 283 240 183 190 180 264 193 217 247 244 223 164 252 255 230
118 166 188 187 203 197 197 214 196 210 187 161 147 148 159 171 185 205 173 135 166 211 212 236 181 21 1 297 201 236 238 217 237 232 220 197 280 275
187 180 191 190 203 203 203 200 212 207 181 169 166 175 171 193 170 198 219 159 232 216 234 208 135 140 173 249 283 210 203 201 190 215 203 202 220 258
189 187 206 195 192 212 213 204 212 184 207 182 178 186 191 177 182 214 190 185 216 229 252 189 199 194 185 212 222 262 194 196 189 226 236 214 241 273
206 209 201 198 201 210 221 214 199 188 192 182 193 185 196 187 212 210 217 206 199 179 234 250 243 194 206 102 290 280 292 217 200 201 227 201 236 252
198 211 213 215 216 211 231 197 196 184 187 190 199 196 195 192 206 208 199 191 197 194 215 234 289 125 141 172 236 243 279 298 266 237 239 213 178 212
212 210 213 212 217 211 200 199 205 190 194 200 203 205 186 195 206 212 210 207 200 188 195 229 257 213 210 197 196 223 251 276 273 309 301 263 236 248